SL-14 DEB, 45324

Orbit data source: Space-Track

SL-14 DEB, 45324 is space debris in LEO originally from a launch on Thu, 15 Aug 1991 UTC launched from the Plesetsk Missile And Space Complex (PKMTR). Debris objects in space refer to the collection of defunct objects orbiting the Earth. Examples of debris include non-operational satellites, rocket bodies, and fragments generated from explosions, collisions, or faulty payload assembly.

Loading next visibility...
Identifier
45324, 1991-056BN
Orbit
LEO
Country
Flag of CISCIS
Related business
Manufacturer
Unknown
Mission
Spacecraft
Bus & Motor
Unknown
Mass
Unknown
Launch date (UTC)
1991-08-15 (35 years ago)
Launch vehicle
Unknown
Launch site
Plesetsk Missile And Space Complex (PKMTR)
Object type
Payload
Rocket body
Debris
Shape & HBR
Unknown shape, 0.1 m
Radar Cross Section
Small (<0.1 m²)

Expand to show TLE details & history
Last TLE update: 6 days ago

TLE from 6 days ago
0 SL-14 DEB
1 45324U 91056BN  26167.17278144  .00000167  00000-0  37780-3 0  9997
2 45324  82.5454 127.7245 0028244  65.0806 295.3249 13.21036529305386
Epoch: 2026-06-16T04:08Z
TLE epoch observation values (Epoch: 2026-06-16T04:08:48.316Z)
Latitude
-0.00003°
Longitude
161.07456°
Altitude
1,174.492 km
Speed
7.271 km/s
True Right ascension
08h 30m 53s
True Declination
0° 00' 00"
Sunlit
Object was in daylight at epoch
Visualization orbit readout
Latitude
Unknown
Longitude
Unknown
Altitude
Unknown
Speed
Unknown
Apparent Right ascension
Unknown
Apparent Declination
Unknown
Sunlit
N/A
Visualization observer readout
Local Sidereal Time
21:37:26
Azimuth
Unknown
Elevation
Unknown
Doppler factor
Unknown
Orbital elements
Apogee altitude
1,199.344 km
Perigee altitude
1,156.661 km
Semi-major axis
7,556.14 km
Eccentricity
0.00282
Inclination
82.5454°
RAAN
127.7245°
Arg. of periapsis
65.0806°
True anomaly
295.03191°
Mean anomaly
295.3249°
Eccentric anomaly
295.17845°
Mean motion
3.3044 °/min
Orbital period
108.95 mins
BSTAR
0.0003778
Loading maneuver chart data...
Computing Atmospheric mass density...
Loading historical data...
Loading historical data...
Loading historical data...
Loading historical data...
Loading historical data...
Loading historical data...
Loading historical data...

Documentation

Showing up to 5 results
|